Location: Vancouver
(49.2500°N, 123.1330°W)
Time: 22:51:31
(UTC-08:00)

ISS - Visible Passes

Search period start: 09 December 2016 00:00
Search period end: 19 December 2016 00:00
Orbit: 401 x 410 km, 51.6° (Epoch: 10 December)

Date Brightness Start Highest point End Pass type
(mag) Time Alt. Az. Time Alt. Az. Time Alt. Az.
09 Dec -3.1 17:28:06 10° W 17:31:23 61° N 17:33:23 21° ENE visible
09 Dec -0.8 19:04:50 10° WNW 19:06:03 20° WNW 19:06:03 20° WNW visible
10 Dec -3.1 18:12:49 10° WNW 18:16:04 55° N 18:16:09 55° N visible
11 Dec -3.0 17:20:45 10° W 17:24:00 54° N 17:26:15 18° ENE visible
11 Dec -1.1 18:57:22 10° WNW 18:58:56 26° WNW 18:58:56 26° WNW visible
12 Dec -3.3 18:05:21 10° WNW 18:08:39 66° NNE 18:09:05 57° ENE visible
13 Dec -3.1 17:13:17 10° WNW 17:16:34 57° N 17:19:18 14° E visible
13 Dec -1.7 18:49:51 10° WNW 18:51:59 35° W 18:51:59 35° W visible
14 Dec -3.4 17:57:47 10° WNW 18:01:06 86° SSW 18:02:17 37° ESE visible
14 Dec 0.2 19:34:43 10° W 19:34:58 11° W 19:34:58 11° W visible
15 Dec -3.3 17:05:44 10° WNW 17:09:02 72° NNE 17:12:20 10° E visible
15 Dec -1.8 18:42:23 10° W 18:45:23 32° SW 18:45:25 32° SSW visible
16 Dec -2.5 17:50:12 10° WNW 17:53:25 50° SSW 17:56:01 15° SE visible
16 Dec 0.1 19:28:38 10° WSW 19:28:44 10° SW 19:28:44 10° SW visible
17 Dec -3.1 16:58:05 10° WNW 17:01:24 76° SSW 17:04:42 10° ESE visible
17 Dec -0.5 18:35:13 10° W 18:37:29 17° SW 18:39:37 11° S visible
18 Dec -1.2 17:42:44 10° W 17:45:35 27° SW 17:48:26 10° SSE visible
